Hourly Data Report for October 11, 2015

All times are specified in Local Standard Time (LST). Add 1 hour to adjust for Daylight Saving Time where and when it is observed.

POND INLET A
NUNAVUT

72°41'22.000" N
77°58'08.000" W
61.60 m
2403206
71095
YIO

Download Data

Hourly Data (October 2015)
Hourly Data Report for October 11, 2015
Temp Definition
°C
Dew Point Temp Definition
°C
Rel Hum Definition
%
Wind Dir Definition
10's deg

Wind Spd Definition
km/h
Visibility Definition
km
Stn Press Definition
kPa
Hmdx Definition


Wind Chill Definition


Weather Definition


TIME
00:00 Legend Double Dagger -6.9 -8.2 91 16 13 16.1 100.07   -12 LegendNANA
01:00 Legend Double Dagger -7.0 -8.1 92 15 11 16.1 100.07   -12 LegendNANA
02:00 Legend Double Dagger -6.1 -7.3 91 16 11 16.1 100.06   -11 LegendNANA
03:00 Legend Double Dagger -5.7 -6.8 92 16 13 16.1 100.06   -11 LegendNANA
04:00 Legend Double Dagger -5.9 -7.3 90 17 11 16.1 100.05   -11 LegendNANA
05:00 Legend Double Dagger -5.5 -7.0 89 17 8 16.1 100.06   -9 LegendNANA
06:00 Legend Double Dagger -5.7 -7.2 89 16 13 16.1 100.07   -11 LegendNANA
07:00 Legend Double Dagger -4.6 -6.1 90 16 9 16.1 100.07   -8 LegendNANA
08:00 Legend Double Dagger -4.9 -6.7 87 LegendMM 4 16.1 100.06   -7 LegendNANA
09:00 Legend Double Dagger -4.1 -7.8 76   0 16.1 100.06     LegendNANA
10:00 Legend Double Dagger -4.4 -7.1 82 7 5 16.1 100.03   -7 LegendNANA
11:00 Legend Double Dagger -5.9 -8.6 81 LegendMM 4 16.1 100.00   -8 LegendNANA
12:00 Legend Double Dagger -5.2 -7.5 84 16 13 16.1 100.00   -10 LegendNANA
13:00 Legend Double Dagger -3.1 -6.1 80   0 16.1 99.97     LegendNANA
14:00 Legend Double Dagger -5.3 -8.6 78 17 5 16.1 99.96   -8 LegendNANA
15:00 Legend Double Dagger -4.5 -7.3 81 25 5 16.1 99.96   -7 LegendNANA
16:00 Legend Double Dagger -3.6 -6.7 79 22 8 16.1 99.93   -7 LegendNANA
17:00 Legend Double Dagger -4.1 -7.1 80 18 8 16.1 99.90   -8 LegendNANA
18:00 Legend Double Dagger -4.5 -6.8 84 13 9 16.1 99.87   -8 LegendNANA
19:00 Legend Double Dagger -3.8 -6.7 80 20 5 16.1 99.83   -6 LegendNANA
20:00 Legend Double Dagger -3.7 -6.8 79 14 13 16.1 99.80   -9 LegendNANA
21:00 Legend Double Dagger -2.6 -6.8 73 18 5 16.1 99.75   -5 LegendNANA
22:00 Legend Double Dagger -3.1 -6.6 77 LegendMM 4 16.1 99.71   -5 LegendNANA
23:00 Legend Double Dagger -4.0 -6.3 84 20 11 16.1 99.68   -8 LegendNANA

Notes on Data Quality.

Legend

  • E = Estimated
  • M = Missing
  • NA = Not Available
  • ‡ = Partner data that is not subject to review by the National Climate Archives
Date modified: